Home > Weather > Kokkola > Past weeks

Flag for Finland Weather for the Past 2 Weeks in Kokkola, Finland

Now
30 °F

Partly cloudy.


Feels Like: 25 °F
Forecast: 23 / 31 °F
Wind: 5 mph from Southeast

Location: Kruunupyy

Current Time: Feb 14, 2016 at 11:06:29 PM

Latest Report: Feb 14, 2016 at 10:20 PM


Visibility: N/A

Pressure: 29.62 "Hg

Humidity: 100%

Dew point: 30 °F

Location of KokkolaLocation

Historic Weather in Kokkola — Graph

°F

Kokkola Temperature Yesterday

Maximum temperature yesterday: 32 °F (at 12:20 AM)
Minimum temperature yesterday: 23 °F (at 11:50 PM)
Average temperature yesterday: 28 °F

High & Low Weather Summary for the Past Weeks

 TemperatureHumidityPressure
High37 °F (Feb 10, 12:20 PM)100% (Jan 30, 10:50 PM)29.71 "Hg (Jan 30, 10:50 PM)
Low12 °F (Feb 4, 7:20 AM)80% (Feb 1, 2:20 PM)28.68 "Hg (Jan 30, 9:20 PM)
Average29 °F95%29.19 "Hg
* Reported Jan 30 9:20 PM — Feb 14 9:50 PM, Kokkola, Weather by CustomWeather, © 2016

Note: Actual official high and low records may vary slightly from our data, if they occured in-between our weather recording intervals... More about our weather records

Advertising

Kokkola Weather History for the Previous 24 Hours

 ConditionsComfort  
Time TempWeatherWind HumidityBarometerVisibility
9:50 PM
Sun, Feb 14
30 °FIce fog.5 mph100%29.62 "Hg6 mi
9:20 PM30 °FLight freezing rain. Passing clouds.5 mph93%29.62 "Hg1 mi
8:50 PM32 °FPassing clouds.5 mph93%29.59 "HgN/A
8:20 PM32 °FSprinkles. Overcast.5 mph100%29.59 "HgN/A
7:50 PM32 °FLight snow. Partly cloudy.7 mph100%29.59 "Hg5 mi
7:20 PM32 °FLight snow. Mostly cloudy.6 mph100%29.59 "Hg5 mi
6:50 PM32 °FLight rain. Overcast.5 mph100%29.59 "Hg5 mi
6:20 PM32 °FOvercast.5 mph100%29.59 "HgN/A
5:50 PM32 °FOvercast.6 mph100%29.56 "HgN/A
5:20 PM32 °FMostly cloudy.5 mph100%29.56 "HgN/A
4:50 PM32 °FSprinkles. Mostly cloudy.5 mph100%29.56 "HgN/A
4:20 PM32 °FSprinkles. More clouds than sun.6 mph100%29.56 "HgN/A
3:50 PM32 °FSprinkles. Overcast.7 mph100%29.56 "HgN/A
3:20 PM32 °FSprinkles. Mostly cloudy.7 mph100%29.56 "Hg6 mi
2:50 PM32 °FLight rain. Cloudy.6 mph100%29.56 "Hg5 mi
2:20 PM34 °FLight rain. Cloudy.7 mph93%29.56 "Hg5 mi
1:50 PM32 °FLight rain. Mostly cloudy.8 mph100%29.56 "Hg3 mi
1:20 PM34 °FSprinkles. Partly sunny.8 mph93%29.56 "HgN/A
12:50 PM34 °FSprinkles. Partly sunny.9 mph93%29.56 "HgN/A
12:20 PM34 °FLight rain. Broken clouds.8 mph93%29.56 "HgN/A
11:50 AM32 °FLight rain. Broken clouds.10 mph100%29.56 "Hg4 mi
11:20 AM32 °FLight rain. Broken clouds.9 mph100%29.56 "Hg3 mi
10:50 AM32 °FSprinkles. Cloudy.9 mph100%29.56 "Hg3 mi
10:20 AM32 °FSnow flurries. Partly sunny.7 mph100%29.56 "Hg5 mi
9:20 AM30 °FLight freezing rain. Broken clouds.7 mph100%29.56 "Hg4 mi
8:50 AM30 °FLight snow. Broken clouds.7 mph100%29.59 "Hg3 mi
8:20 AM30 °FSnow. Ice fog.9 mph100%29.59 "Hg1 mi
7:50 AM28 °FSnow flurries. Passing clouds.7 mph100%29.59 "Hg2 mi
7:20 AM28 °FSnow flurries. Mostly cloudy.6 mph93%29.59 "HgN/A
6:50 AM28 °FSnow. Overcast.6 mph93%29.59 "Hg3 mi
6:20 AM27 °FSnow. Ice fog.6 mph100%29.62 "Hg1 mi
5:50 AM27 °FSnow showers. Overcast.6 mph93%29.62 "Hg1 mi
5:20 AM27 °FSnow flurries. Passing clouds.7 mph93%29.62 "Hg5 mi
4:50 AM25 °FClear.8 mph93%29.65 "Hg10 mi
4:20 AM23 °FClear.7 mph93%29.65 "Hg10 mi
3:20 AM23 °FClear.7 mph93%29.68 "Hg10 mi
2:50 AM23 °FClear.7 mph93%29.68 "Hg10 mi
2:20 AM23 °FClear.6 mph93%29.68 "Hg10 mi
1:50 AM23 °FClear.6 mph93%29.71 "Hg10 mi
1:20 AM23 °FClear.6 mph93%29.71 "Hg10 mi
12:50 AM23 °FClear.5 mph93%29.71 "Hg10 mi
12:20 AM23 °FClear.6 mph93%29.71 "Hg10 mi
11:50 PM
Sat, Feb 13
23 °FClear.6 mph93%29.71 "Hg10 mi
11:20 PM25 °FClear.7 mph86%29.71 "Hg10 mi
Weather by CustomWeather, © 2016

See weather overviewHow to use our weather pages